Regional Weather Roundup
Issued by NWS

Home | Current Version | Previous Version | Graphics & Text | Print | Product List | Glossary On
Versions: 1 2 3 4 5 6 7 8 9 10 11 12 13 14 15 16 17 18 19 20 21 22 23 24 25 26 27
000
ASUS45 KBOU 012307
RWRCO

WEATHER ROUNDUP FOR COLORADO
NATIONAL WEATHER SERVICE DENVER/BOULDER CO
500 PM MDT SUN MAY 01 2016

NOTE: "FAIR" INDICATES FEW OR NO CLOUDS BELOW 12000 FEET WITH NO
SIGNIFICANT WEATHER AND/OR OBSTRUCTIONS TO VISIBILITY.

COZ001>005-013-030-031-020000-
...NORTHWEST COLORADO...

CITY           SKY/WX    TMP DP  RH WIND       PRES   REMARKS
CRAIG          FAIR      57  25  29 E10       30.04F
HAYDEN         FAIR      54  23  30 E14G21    30.05S
MEEKER         CLOUDY    56  24  29 SE3       30.03S
MOUNT WERNER   NOT AVBL
STEAMBOAT SPGS FAIR      51  25  37 NE14      30.08S
WALDEN         PTSUNNY   37  21  52 NE21G29   30.15S
$$

COZ006>008-011-020000-
...WEST CENTRAL VALLEYS...

CITY           SKY/WX    TMP DP  RH WIND       PRES   REMARKS
GRAND JUNCTION CLOUDY    59  29  31 SE6       30.00F
MONTROSE       CLOUDY    51  29  42 W3        30.07R
EAGLE          PTSUNNY   54  25  32 S10       30.05
RIFLE          CLOUDY    57  31  37 S17       30.00R
DELTA          NOT AVBL
NUCLA          NOT AVBL
$$

COZ017>023-064>068-020000-
...SOUTHWEST COLORADO...

CITY           SKY/WX    TMP DP  RH WIND       PRES   REMARKS
DURANGO        CLOUDY    41  37  86 E9        30.11S
CORTEZ         FAIR      52  35  52 SE10      30.06S
PAGOSA SPRINGS LGT SNOW  37  36  95 SW9       30.14R
TELLURIDE      CLOUDY    36  32  86 W8        30.12S
WOLF CREEK PAS LGT SNOW  23  23 100 CALM      30.21R
$$

COZ009-010-012-014-032>034-037-058>063-020000-
...CENTRAL COLORADO...

CITY           SKY/WX    TMP DP  RH WIND       PRES   REMARKS
ASPEN          CLOUDY    46  23  40 S13       30.07R
BUENA VISTA    LGT SNOW  32  29  91 SE6       30.21S VSB 3/4 WCI  26
COPPER MTN     NOT AVBL
BERTHOUD PASS  CLOUDY    14   5  67 MISG      30.20S
COTTONWOOD PAS LGT SNOW  32  28  86 CALM      30.21S
GUNNISON       FAIR      43  23  45 E14       30.14S
KREMMLING      FAIR      50  18  27 E13G21    30.12S
LEADVILLE      LGT SNOW  26  21  81 S13       30.17S WCI  15
MONARCH PASS   CLOUDY    19  18  93 MISG      30.28S
SALIDA         CLOUDY    38  30  73 E8G16     30.29S
SUNLIGHT       FLURRIES  34  30  86 CALM      30.18F
WILKERSON PASS LGT SNOW N/A N/A N/A NE6       30.25S
$$

COZ069>075-020000-
...SAN LUIS VALLEY/SANGRE DE CRISTO MOUNTAINS...

CITY           SKY/WX    TMP DP  RH WIND       PRES   REMARKS
ALAMOSA        CLOUDY    43  28  55 E17G25    30.14R
LA VETA PASS   SNOW      23  19  86 MISG      30.21S VSB 1/2
SAGUACHE       CLOUDY    37  28  70 CALM      30.16S
$$

COZ035-036-038>040-020000-
...NORTHERN COLORADO FRONT RANGE...

CITY           SKY/WX    TMP DP  RH WIND       PRES   REMARKS
DENVER INTL AP CLOUDY    39  29  67 W7        30.27F
DMNS CITY PARK   N/A     40  28  63 N3        30.27F
AURORA         CLOUDY    37  31  82 NW2       30.28S
FRONT RANGE AP NOT AVBL
ERIE MUNI ARPT CLOUDY    42  31  65 CALM      30.28S
BOULDER MUN AP CLOUDY    43  30  61 SE3       30.27S
CENTENNIAL     PTSUNNY   37  32  82 NW5       30.27F
BROOMFIELD       N/A     39  32  75 SW5       30.28
FORT COLLINS   CLOUDY    45  27  49 CALM      30.29S
LONGMONT       CLOUDY    49  32  51 SE3       30.29S HAZE
$$

COZ041-046-047-076>085-087-088-020000-
...PIKES PEAK/PALMER DIVIDE AND SOUTHERN FOOTHILLS...

CITY           SKY/WX    TMP DP  RH WIND       PRES   REMARKS
COLO. SPRINGS  PTSUNNY   38  29  70 N16       30.26F
A. F. ACADEMY  LGT RAIN  32  28  86 N14       30.25S WCI  22
SCHRIEVER AFB  NOT AVBL
ELLICOTT       NOT AVBL
FALCON         CLOUDY    34  29  82 N10G16    30.26F HAZE    WCI  26
FORT CARSON    CLOUDY    41  30  65 N14G21    30.24F
LIMON          FAIR      37  27  67 N10       30.27S
MONUMENT HILL  CLOUDY    30  28  93 N7        30.28R FOG     WCI  23
TRINIDAD       FLURRIES  35  32  88 N12       30.26S WCI  27
$$

COZ042>045-048>051-090-091-020000-
...NORTHEAST COLORADO...

CITY           SKY/WX    TMP DP  RH WIND       PRES   REMARKS
GREELEY ARPT   CLOUDY    45  25  45 W5        30.28S
AKRON          FAIR      40  30  67 NE9       30.26R
BURLINGTON     CLOUDY    46  31  55 N15       30.22S
WRAY           NOT AVBL
STERLING       PTSUNNY   46  30  53 N8G20     30.25S
HOLYOKE        NOT AVBL
FORT MORGAN    CLOUDY    50  23  34 N8        30.27S
$$

COZ086-089-092>099-020000-
...SOUTHEAST COLORADO...

CITY           SKY/WX    TMP DP  RH WIND       PRES   REMARKS
PUEBLO         CLOUDY    46  30  53 NE12      30.26S
LA JUNTA       CLOUDY    46  30  53 NE15      30.24F
LAMAR          CLOUDY    48  32  53 N12       30.20F
SPRINGFIELD      N/A     41  34  76 N17       30.20S
$$




USA.gov is the U.S. government's official web portal to all federal, state and local government web resources and services.